星链-11491 (STARLINK-11491)

导读 | 豆包AI

STARLINK-11491是美国SpaceX星链星座的一员,于2024年12月8日发射入轨,服务于星链全球卫星互联网项目。星链系统通过部署近地轨道卫星星座,为全球范围提供高速宽带接入服务,覆盖偏远地区,也支持海事、航空等移动场景的互联网连接,此卫星进一步扩充了星链网络的运行容量。

基本信息
目录编号:
62269
目录名称:
STARLINK-11491
国际标识:
2024-237C
轨道中心:
EARTH
卫星名称:
星链-11491
卫星全名:
星链-11491 (STARLINK-11491)
卫星状态:
在轨 (已飞行508 天)
发射日期:
2024-12-08 UTC
国别 :
美国 (US)
星等 :
--
轨道信息
数据来源 国际轨道数据
星历时间: 2026-04-29T10:33:50+0800
1天前
查看轨道信息
半长轴: 6734.478km
偏心率: 0.0003176
轨道倾角: 42.998°
近地点辐角 301.855°
升交点赤经 112.528°
平近点角 58.201°
近地点: 354.202km
远地点: 358.48km
周期: 91.668分钟
每日圈数: 15.708942
详细信息
固有亮度:
5
最大亮度:
2.5
卫星平台:
Starlink V1.0
覆盖范围:
全球
运营商:
太空探索技术公司
运营商所在国:
美国
制造商(研发单位):
太空探索技术公司
制造商所在国:
美国
使用方式:
暂无
卫星简介
Starlink 计划是 SpaceX 推出的全球卫星互联网项目,通过发射低轨道卫星,为全球尤其是偏远地区提供高速、低延迟的互联网服务。自 2019 年起,Starlink 已部署数千颗卫星,旨在缩小全球数字鸿沟,推动互联网普及。该项目还为军事、航空等行业提供通信支持,带来广泛经济效益。
2D轨道图
3D轨道图
轨道高度分析图
轨道倾角分析图
轨道综合分析图
查看轨道综合分析图